Location: Columbia, SC
(34.0000°N, 81.0300°W)
Time: 11:54:34
(UTC-05:00)

Tiangong 1 - Visible Passes

Search period start: 26 February 2017 00:00
Search period end: 08 March 2017 00:00
Orbit: 337 x 361 km, 42.8° (Epoch: 26 February)

Date Brightness Start Highest point End Pass type
(mag) Time Alt. Az. Time Alt. Az. Time Alt. Az.
26 Feb 3.2 05:24:16 16° N 05:24:16 16° N 05:25:41 10° NE visible
27 Feb 3.2 05:48:10 13° NNW 05:49:11 14° N 05:50:54 10° NE visible
28 Feb 3.2 06:12:39 10° NW 06:14:38 17° N 06:16:38 10° NE visible
01 Mar 3.8 05:04:19 13° NNE 05:04:19 13° NNE 05:05:06 10° NE visible
02 Mar 3.1 05:28:05 16° N 05:28:43 17° N 05:30:48 10° ENE visible
03 Mar 2.4 05:51:51 14° NW 05:53:53 29° NNE 05:56:30 10° E visible
04 Mar 4.1 04:44:08 13° NE 04:44:08 13° NE 04:44:44 10° ENE visible
04 Mar 0.9 06:15:54 10° WNW 06:18:49 81° NNE 06:21:43 10° ESE visible
05 Mar 2.4 05:07:56 32° NE 05:07:56 32° NE 05:10:17 10° E visible
06 Mar 0.7 05:31:48 53° WNW 05:32:22 82° SSW 05:35:16 10° ESE visible
07 Mar 2.3 05:55:45 18° WSW 05:56:53 23° SW 05:59:15 10° SSE visible
